Location: Bottens
(46.6171°N, 6.6605°E)
Time: 04:28:54
(UTC+00:00)

SeaSat 1 - Visible Passes

Search period start: 17 October 2021 00:00
Search period end: 27 October 2021 00:00
Orbit: 743 x 747 km, 108.0° (Epoch: 16 October)

Date Brightness Start Highest point End Pass type
(mag) Time Alt. Az. Time Alt. Az. Time Alt. Az.
17 Oct 4.7 19:31:07 15° NNE 19:31:07 15° NNE 19:32:21 10° N visible
18 Oct 5.1 20:27:49 13° NNW 20:27:49 13° NNW 20:28:23 10° NNW visible
19 Oct 4.9 19:44:43 13° N 19:44:43 13° N 19:45:29 10° N visible
20 Oct 5.4 20:41:24 10° NNW 20:41:24 10° NNW 20:41:28 10° NNW visible
21 Oct 5.1 19:58:18 11° N 19:58:18 11° N 19:58:37 10° N visible
